Regional Weather Roundup
Issued by NWS

Home | Current Version | Previous Version | Graphics & Text | Print | Product List | Glossary On
Versions: 1 2 3 4 5 6 7 8 9 10 11 12 13 14 15 16 17 18 19 20 21 22 23 24 25 26 27 28 29 30 31 32 33 34 35 36 37 38 39 40 41 42 43 44 45 46 47 48 49 50
000
ASUS45 KABQ 271901
RWRNM
WEATHER ROUNDUP FOR NEW MEXICO
NATIONAL WEATHER SERVICE ALBUQUERQUE NM
100 PM MDT MON APR 27 2015

NOTE: "FAIR" MEANS FEW OR NO CLOUDS BELOW 12,000 FEET AGL WITH NO
       SIGNIFICANT WEATHER OR OBSTRUCTIONS TO VISION.

      THIS PRODUCT IS RELEASED AS TWO VERSIONS.  ONE VERSION NEAR
      THE TOP OF THE HOUR CONTAINING PRELIMINARY DATA FROM ALBUQUERQUE
      AND OTHER STATIONS.  A FINAL VERSION WITH ADDITIONAL DATA IS
      ISSUED ABOUT 10 MINUTES AFTER THE HOUR.

NMZ501-503-504-510>518-272000-
NORTHWEST PLATEAU/NORTHCENTRAL MOUNTAINS

CITY           SKY/WX    TMP DP  RH WIND       PRES   REMARKS
FARMINGTON     MOSUNNY   58  36  43 W9G16     30.06F
SANTA FE       CLOUDY    53  34  48 N18G26    30.05S
TAOS           CLOUDY    52  32  46 CALM      30.10F
ANGEL FIRE     CLOUDY    35  29  78 NE18      30.14R WCI  24

$$
NMZ402-403-502-505>509-272000-
WESTCENTRAL MOUNTAINS/SOUTHWEST MOUNTAINS

CITY           SKY/WX    TMP DP  RH WIND       PRES   REMARKS
GALLUP         CLOUDY    53  36  52 N3        30.11S
GRANTS         MOSUNNY   56  35  46 N3        30.10F
SILVER CITY      N/A     57  32  38 S7        30.03S

$$
NMZ407-409-411-412-272000-
SOUTHERN DESERTS

CITY           SKY/WX    TMP DP  RH WIND       PRES   REMARKS
DEMING         PTSUNNY   65  36  34 NE21G30   29.99R
HOLLOMAN AFB   PTSUNNY   64  35  33 N22       29.92F
ALAMOGORDO     PTSUNNY   64  34  32 N9G16     29.94S
T OR C         MOSUNNY   63  37  38 NE23G35   30.00F

$$
NMZ519>523-272000-
CENTRAL VALLEYS/CENTRAL HIGHLANDS

CITY           SKY/WX    TMP DP  RH WIND       PRES   REMARKS
ALBUQUERQUE    PTSUNNY   57  35  43 NW12G21   30.05F
DOUBLE EAGLE   CLOUDY   N/A N/A N/A N5        30.06F
MORIARTY ARPT  LGT RAIN  50  36  58 N10G17    30.09R
CLINES CORNERS CLOUDY    43  35  73 NE26G37   30.06S
BELEN          CLOUDY    57  39  50 NW7       30.05F
SOCORRO        NOT AVBL

$$
NMZ524>526-539-540-272000-
SOUTHCENTRAL MOUNTAINS

CITY           SKY/WX    TMP DP  RH WIND       PRES   REMARKS
RUIDOSO        NOT AVBL

$$
NMZ527>531-272000-
NORTHEAST HIGHLANDS/NORTHEAST PLAINS

CITY           SKY/WX    TMP DP  RH WIND       PRES   REMARKS
LAS VEGAS      CLOUDY    42  35  76 N29G38    30.10R
RATON          CLOUDY    45  32  60 N28G44    30.10S
CLAYTON        LGT RAIN  41  38  89 N31G39    30.08R FOG

$$
NMZ532>537-272000-
EASTCENTRAL PLAINS

CITY           SKY/WX    TMP DP  RH WIND       PRES   REMARKS
TUCUMCARI      RAIN      43  39  86 N29G35    30.03R FOG
CANNON AFB     NOT AVBL
CLOVIS AIRPORT CLOUDY    43  37  81 N32G38    29.98R

$$
NMZ028-029-538-272000-
SOUTHEAST PLAINS

CITY           SKY/WX    TMP DP  RH WIND       PRES   REMARKS
ROSWELL        CLOUDY    55  38  52 N24G35    29.99R
ARTESIA        CLOUDY    55  41  58 N26G35    29.99R
CARLSBAD       CLOUDY    65  40  39 N26G37    29.94R
HOBBS          PTSUNNY   59  41  51 NW26G35   29.91R


$$


USA.gov is the U.S. government's official web portal to all federal, state and local government web resources and services.